When you browse on this site, cookies collect data to enhance your experience and personalize the content and advertising you see.
Visit our Privacy Policy to learn more. By continuing to use the site, you agree to this use of cookies and data.
  • In Czech Republic
  • List of Countries
  • For 7 days
  • Water Temperature
  • Weather Map
  • Weather Widgets
  • user-avatar
    Login

    Hourly Weather Mauritius

    Today, 28 February, Friday

    Time Temperature Precipitation Wind Pressure Humidity
    00:00 +25°C° 1 mm 4 mps 721 mmHg 91%
    01:00 +25°C° 1 mm 3 mps 720 mmHg 91%
    02:00 +23°C° 0.8 mm 4 mps 720 mmHg 90%
    03:00 +23°C° 0.8 mm 4 mps 720 mmHg 90%
    04:00 +23°C° 0.8 mm 4 mps 719 mmHg 89%
    05:00 +23°C° 0.5 mm 4 mps 719 mmHg 89%
    06:00 +25°C° 0.5 mm 4 mps 720 mmHg 89%
    07:00 +25°C° 0.5 mm 4 mps 720 mmHg 89%
    08:00 +25°C° 0.9 mm 4 mps 720 mmHg 87%
    09:00 +26°C° 0.9 mm 5 mps 720 mmHg 85%
    10:00 +27°C° 0.9 mm 6 mps 720 mmHg 83%
    11:00 +26°C° 1.2 mm 6 mps 720 mmHg 84%
    12:00 +26°C° 1.2 mm 6 mps 720 mmHg 85%
    13:00 +26°C° 1.2 mm 6 mps 719 mmHg 86%
    14:00 +26°C° 0.3 mm 6 mps 719 mmHg 86%
    15:00 +26°C° 0.3 mm 6 mps 719 mmHg 86%
    16:00 +26°C° 0.3 mm 6 mps 718 mmHg 86%
    17:00 +24°C° 0.3 mm 6 mps 718 mmHg 88%
    18:00 +24°C° 0.3 mm 6 mps 718 mmHg 90%
    19:00 +23°C° 0.3 mm 5 mps 719 mmHg 92%
    20:00 +25°C° 0.3 mm 5 mps 719 mmHg 91%
    21:00 +25°C° 0.3 mm 5 mps 719 mmHg 91%
    22:00 +25°C° 0.3 mm 5 mps 719 mmHg 91%
    23:00 +25°C° 0.4 mm 5 mps 719 mmHg 90%

    Tomorrow, 29 February, Saturday

    Time Temperature Precipitation Wind Pressure Humidity
    00:00 +25°C° 0.4 mm 5 mps 718 mmHg 90%
    01:00 +25°C° 0.4 mm 5 mps 718 mmHg 90%
    02:00 +25°C° 0.3 mm 4 mps 718 mmHg 90%
    03:00 +23°C° 0.3 mm 4 mps 717 mmHg 91%
    04:00 +23°C° 0.3 mm 4 mps 717 mmHg 92%
    05:00 +25°C° 0.1 mm 4 mps 717 mmHg 91%
    06:00 +25°C° 0.1 mm 4 mps 717 mmHg 90%
    07:00 +25°C° 0.1 mm 5 mps 718 mmHg 89%
    08:00 +26°C° 0.1 mm 5 mps 718 mmHg 86%
    09:00 +27°C° 0.1 mm 5 mps 718 mmHg 83%
    10:00 +27°C° 0.1 mm 5 mps 718 mmHg 80%
    11:00 +28°C° 0.3 mm 5 mps 718 mmHg 79%
    12:00 +28°C° 0.3 mm 4 mps 717 mmHg 78%
    13:00 +28°C° 0.3 mm 4 mps 717 mmHg 78%
    14:00 +28°C° 0.9 mm 4 mps 717 mmHg 79%
    15:00 +28°C° 0.9 mm 4 mps 716 mmHg 80%
    16:00 +27°C° 0.9 mm 4 mps 716 mmHg 81%
    17:00 +27°C° 0.6 mm 4 mps 716 mmHg 84%
    18:00 +26°C° 0.6 mm 4 mps 717 mmHg 86%
    19:00 +26°C° 0.6 mm 4 mps 717 mmHg 88%
    20:00 +25°C° 0.1 mm 3 mps 717 mmHg 89%
    21:00 +25°C° 0.1 mm 3 mps 717 mmHg 89%
    22:00 +25°C° 0.1 mm 2 mps 718 mmHg 90%
    23:00 +25°C° 0.3 mm 2 mps 717 mmHg 89%

    Day after tomorrow, 1 March, Sunday

    Time Temperature Precipitation Wind Pressure Humidity
    00:00 +25°C° 0.3 mm 2 mps 717 mmHg 89%
    01:00 +25°C° 0.3 mm 2 mps 717 mmHg 88%
    02:00 +25°C° 0.1 mm 1 mps 716 mmHg 87%
    03:00 +25°C° 0.1 mm 1 mps 716 mmHg 86%
    04:00 +25°C° 0.1 mm 1 mps 716 mmHg 85%
    05:00 +25°C° 0.1 mm 1 mps 716 mmHg 84%
    06:00 +26°C° 0.1 mm 1 mps 717 mmHg 84%
    07:00 +26°C° 0.1 mm 1 mps 717 mmHg 83%
    08:00 +27°C° 0 mm 1 mps 717 mmHg 78%
    09:00 +28°C° 0 mm 1 mps 717 mmHg 73%
    10:00 +29°C° 0 mm 1 mps 718 mmHg 68%
    11:00 +29°C° 0.4 mm 1 mps 717 mmHg 68%
    12:00 +30°C° 0.4 mm 2 mps 717 mmHg 68%
    13:00 +30°C° 0.4 mm 2 mps 717 mmHg 68%
    14:00 +30°C° 0.8 mm 2 mps 717 mmHg 68%
    15:00 +29°C° 0.8 mm 2 mps 717 mmHg 69%
    16:00 +29°C° 0.8 mm 2 mps 716 mmHg 70%
    17:00 +29°C° 0.5 mm 2 mps 717 mmHg 73%
    18:00 +28°C° 0.5 mm 1 mps 717 mmHg 77%
    19:00 +27°C° 0.5 mm 1 mps 717 mmHg 80%
    20:00 +27°C° 0.4 mm 1 mps 718 mmHg 82%
    21:00 +27°C° 0.4 mm 2 mps 718 mmHg 83%
    22:00 +27°C° 0.4 mm 2 mps 718 mmHg 84%
    23:00 +26°C° 0.1 mm 2 mps 718 mmHg 85%

    2 March, Monday

    Time Temperature Precipitation Wind Pressure Humidity
    00:00 +26°C° 0.1 mm 2 mps 718 mmHg 86%
    01:00 +26°C° 0.1 mm 2 mps 718 mmHg 87%
    02:00 +26°C° 0.1 mm 1 mps 717 mmHg 87%
    03:00 +26°C° 0.1 mm 1 mps 717 mmHg 86%
    04:00 +26°C° 0.1 mm 1 mps 717 mmHg 86%
    05:00 +26°C° 0 mm 1 mps 718 mmHg 85%
    06:00 +26°C° 0 mm 1 mps 718 mmHg 84%
    07:00 +27°C° 0 mm 1 mps 718 mmHg 83%
    08:00 +28°C° 0 mm 1 mps 719 mmHg 77%
    09:00 +29°C° 0 mm 2 mps 719 mmHg 72%
    10:00 +30°C° 0 mm 2 mps 719 mmHg 67%
    11:00 +30°C° 0.3 mm 2 mps 719 mmHg 66%
    12:00 +31°C° 0.3 mm 2 mps 719 mmHg 66%
    13:00 +31°C° 0.3 mm 2 mps 719 mmHg 66%
    14:00 +30°C° 0.5 mm 2 mps 719 mmHg 67%
    15:00 +30°C° 0.5 mm 2 mps 719 mmHg 68%
    16:00 +30°C° 0.5 mm 2 mps 719 mmHg 69%
    17:00 +29°C° 0 mm 2 mps 719 mmHg 73%
    18:00 +28°C° 0 mm 2 mps 719 mmHg 77%
    19:00 +28°C° 0 mm 2 mps 720 mmHg 81%
    20:00 +27°C° 0.2 mm 2 mps 720 mmHg 84%
    21:00 +27°C° 0.2 mm 2 mps 721 mmHg 86%
    22:00 +27°C° 0.2 mm 2 mps 721 mmHg 88%
    23:00 +27°C° 0.1 mm 2 mps 721 mmHg 88%

    3 March, Tuesday

    Time Temperature Precipitation Wind Pressure Humidity
    00:00 +26°C° 0.1 mm 2 mps 720 mmHg 89%
    01:00 +26°C° 0.1 mm 2 mps 720 mmHg 90%
    02:00 +26°C° 0 mm 2 mps 720 mmHg 90%
    03:00 +26°C° 0 mm 2 mps 720 mmHg 90%
    04:00 +26°C° 0 mm 2 mps 719 mmHg 90%
    05:00 +26°C° 0 mm 2 mps 720 mmHg 90%
    06:00 +26°C° 0 mm 2 mps 720 mmHg 90%
    07:00 +26°C° 0 mm 2 mps 721 mmHg 90%
    08:00 +27°C° 0 mm 2 mps 721 mmHg 85%
    09:00 +28°C° 0 mm 3 mps 721 mmHg 79%
    10:00 +29°C° 0 mm 3 mps 721 mmHg 74%
    11:00 +30°C° 0 mm 3 mps 721 mmHg 71%
    12:00 +30°C° 0 mm 3 mps 721 mmHg 69%
    13:00 +31°C° 0 mm 3 mps 721 mmHg 67%
    14:00 +30°C° 0.1 mm 3 mps 720 mmHg 69%
    15:00 +30°C° 0.1 mm 4 mps 720 mmHg 72%
    16:00 +29°C° 0.1 mm 4 mps 720 mmHg 74%
    17:00 +29°C° 0 mm 4 mps 720 mmHg 78%
    18:00 +28°C° 0 mm 3 mps 720 mmHg 82%
    19:00 +27°C° 0 mm 3 mps 721 mmHg 86%
    20:00 +27°C° 0.2 mm 3 mps 721 mmHg 87%
    21:00 +26°C° 0.2 mm 3 mps 722 mmHg 88%
    22:00 +26°C° 0.2 mm 3 mps 722 mmHg 89%
    23:00 +26°C° 0.2 mm 3 mps 722 mmHg 88%

    4 March, Wednesday

    Time Temperature Precipitation Wind Pressure Humidity
    00:00 +26°C° 0.2 mm 3 mps 721 mmHg 88%
    01:00 +26°C° 0.2 mm 3 mps 721 mmHg 87%
    02:00 +26°C° 0.2 mm 4 mps 720 mmHg 89%
    03:00 +26°C° 0.2 mm 4 mps 720 mmHg 90%
    04:00 +26°C° 0.2 mm 4 mps 720 mmHg 91%
    05:00 +26°C° 0.1 mm 5 mps 720 mmHg 90%
    06:00 +26°C° 0.1 mm 5 mps 720 mmHg 89%
    07:00 +26°C° 0.1 mm 5 mps 721 mmHg 88%
    08:00 +27°C° 0.4 mm 6 mps 721 mmHg 84%
    09:00 +28°C° 0.4 mm 6 mps 721 mmHg 79%
    10:00 +29°C° 0.4 mm 6 mps 721 mmHg 74%
    11:00 +29°C° 0.5 mm 7 mps 721 mmHg 74%
    12:00 +29°C° 0.5 mm 7 mps 721 mmHg 73%
    13:00 +30°C° 0.5 mm 7 mps 721 mmHg 72%
    14:00 +29°C° 0.4 mm 7 mps 720 mmHg 75%
    15:00 +29°C° 0.4 mm 7 mps 720 mmHg 77%
    16:00 +28°C° 0.4 mm 7 mps 720 mmHg 80%
    17:00 +28°C° 0.2 mm 7 mps 720 mmHg 82%
    18:00 +27°C° 0.2 mm 7 mps 720 mmHg 84%
    19:00 +26°C° 0.2 mm 7 mps 720 mmHg 86%
    20:00 +26°C° 0 mm 7 mps 721 mmHg 86%
    21:00 +26°C° 0 mm 7 mps 721 mmHg 86%
    22:00 +26°C° 0 mm 7 mps 722 mmHg 86%
    23:00 +26°C° 0.1 mm 7 mps 721 mmHg 87%
    Show more